#ZEITBEREICH: 19.05.2023 bis 19.05.2024
Datum;Zeit;ELSB NO AM1H [�g/m�];ELSB NO2 AM1H [�g/m�];ELSB PM10F GM24H [�g/m�]
19.05.2023;01:00;<7;<10;14
19.05.2023;02:00;<7;10;14
19.05.2023;03:00;<7;14;14
19.05.2023;04:00;<7;21;14
19.05.2023;05:00;<7;26;14
19.05.2023;06:00;<7;24;14
19.05.2023;07:00;7;23;14
19.05.2023;08:00;8;18;14
19.05.2023;09:00;<7;10;14
19.05.2023;10:00;<7;10;14
19.05.2023;11:00;<7;<10;14
19.05.2023;12:00;<7;<10;14
19.05.2023;13:00;<7;<10;14
19.05.2023;14:00;;;14
19.05.2023;15:00;<7;<10;14
19.05.2023;16:00;<7;<10;14
19.05.2023;17:00;<7;<10;14
19.05.2023;18:00;<7;<10;14
19.05.2023;19:00;<7;<10;14
19.05.2023;20:00;<7;<10;14
19.05.2023;21:00;<7;<10;14
19.05.2023;22:00;<7;10;14
19.05.2023;23:00;<7;<10;14
19.05.2023;24:00;<7;<10;14
20.05.2023;01:00;<7;<10;14
20.05.2023;02:00;<7;<10;14
20.05.2023;03:00;<7;<10;13
20.05.2023;04:00;<7;<10;13
20.05.2023;05:00;<7;15;13
20.05.2023;06:00;<7;15;13
20.05.2023;07:00;<7;13;13
20.05.2023;08:00;<7;12;13
20.05.2023;09:00;<7;<10;13
20.05.2023;10:00;<7;<10;13
20.05.2023;11:00;<7;<10;12
20.05.2023;12:00;<7;<10;13
20.05.2023;13:00;<7;<10;13
20.05.2023;14:00;<7;<10;13
20.05.2023;15:00;;;13
20.05.2023;16:00;<7;<10;13
20.05.2023;17:00;<7;<10;13
20.05.2023;18:00;<7;<10;13
20.05.2023;19:00;<7;<10;13
20.05.2023;20:00;<7;<10;13
20.05.2023;21:00;<7;<10;13
20.05.2023;22:00;<7;13;13
20.05.2023;23:00;<7;11;13
20.05.2023;24:00;<7;11;14
21.05.2023;01:00;<7;10;14
21.05.2023;02:00;<7;<10;14
21.05.2023;03:00;<7;<10;14
21.05.2023;04:00;<7;<10;15
21.05.2023;05:00;<7;13;15
21.05.2023;06:00;<7;15;15
21.05.2023;07:00;<7;11;16
21.05.2023;08:00;<7;12;16
21.05.2023;09:00;<7;12;16
21.05.2023;10:00;<7;12;16
21.05.2023;11:00;<7;15;17
21.05.2023;12:00;<7;11;17
21.05.2023;13:00;<7;<10;17
21.05.2023;14:00;<7;11;18
21.05.2023;15:00;<7;12;18
21.05.2023;16:00;;;18
21.05.2023;17:00;<7;<10;19
21.05.2023;18:00;<7;<10;19
21.05.2023;19:00;<7;<10;20
21.05.2023;20:00;<7;<10;20
21.05.2023;21:00;<7;<10;21
21.05.2023;22:00;<7;<10;21
21.05.2023;23:00;<7;<10;21
21.05.2023;24:00;<7;<10;22
22.05.2023;01:00;<7;<10;22
22.05.2023;02:00;<7;<10;23
22.05.2023;03:00;<7;<10;23
22.05.2023;04:00;<7;<10;24
22.05.2023;05:00;<7;<10;24
22.05.2023;06:00;<7;<10;25
22.05.2023;07:00;<7;<10;26
22.05.2023;08:00;<7;<10;26
22.05.2023;09:00;<7;<10;28
22.05.2023;10:00;<7;<10;28
22.05.2023;11:00;<7;<10;29
22.05.2023;12:00;<7;<10;30
22.05.2023;13:00;<7;<10;31
22.05.2023;14:00;<7;<10;32
22.05.2023;15:00;<7;<10;33
22.05.2023;16:00;<7;<10;34
22.05.2023;17:00;;;36
22.05.2023;18:00;<7;13;37
22.05.2023;19:00;<7;12;38
22.05.2023;20:00;<7;11;40
22.05.2023;21:00;<7;<10;40
22.05.2023;22:00;<7;<10;40
22.05.2023;23:00;<7;<10;40
22.05.2023;24:00;<7;<10;39
23.05.2023;01:00;<7;<10;38
23.05.2023;02:00;<7;<10;38
23.05.2023;03:00;<7;<10;37
23.05.2023;04:00;<7;<10;37
23.05.2023;05:00;<7;<10;36
23.05.2023;06:00;<7;<10;35
23.05.2023;07:00;<7;<10;34
23.05.2023;08:00;<7;<10;33
23.05.2023;09:00;<7;<10;32
23.05.2023;10:00;<7;<10;31
23.05.2023;11:00;<7;<10;30
23.05.2023;12:00;<7;<10;29
23.05.2023;13:00;<7;<10;28
23.05.2023;14:00;<7;<10;27
23.05.2023;15:00;<7;<10;25
23.05.2023;16:00;<7;<10;23
23.05.2023;17:00;<7;<10;21
23.05.2023;18:00;;;20
23.05.2023;19:00;<7;<10;18
23.05.2023;20:00;<7;<10;17
23.05.2023;21:00;<7;<10;16
23.05.2023;22:00;<7;<10;16
23.05.2023;23:00;<7;<10;15
23.05.2023;24:00;<7;<10;15
24.05.2023;01:00;<7;<10;15
24.05.2023;02:00;<7;<10;15
24.05.2023;03:00;<7;<10;15
24.05.2023;04:00;<7;<10;15
24.05.2023;05:00;<7;12;15
24.05.2023;06:00;<7;17;15
24.05.2023;07:00;<7;13;16
24.05.2023;08:00;<7;12;16
24.05.2023;09:00;<7;<10;17
24.05.2023;10:00;<7;<10;17
24.05.2023;11:00;<7;<10;17
24.05.2023;12:00;<7;<10;17
24.05.2023;13:00;<7;<10;17
24.05.2023;14:00;<7;<10;17
24.05.2023;15:00;<7;<10;17
24.05.2023;16:00;<7;<10;17
24.05.2023;17:00;<7;<10;17
24.05.2023;18:00;<7;11;17
24.05.2023;19:00;;;17
24.05.2023;20:00;<7;13;17
24.05.2023;21:00;<7;16;17
24.05.2023;22:00;<7;18;17
24.05.2023;23:00;<7;19;17
24.05.2023;24:00;<7;18;18
25.05.2023;01:00;<7;17;18
25.05.2023;02:00;<7;13;18
25.05.2023;03:00;<7;14;18
25.05.2023;04:00;<7;16;18
25.05.2023;05:00;<7;26;18
25.05.2023;06:00;<7;23;19
25.05.2023;07:00;14;24;19
25.05.2023;08:00;12;23;19
25.05.2023;09:00;8;18;20
25.05.2023;10:00;<7;18;20
25.05.2023;11:00;<7;15;20
25.05.2023;12:00;<7;15;20
25.05.2023;13:00;<7;16;20
25.05.2023;14:00;<7;<10;21
25.05.2023;15:00;<7;<10;21
25.05.2023;16:00;<7;<10;21
25.05.2023;17:00;<7;<10;21
25.05.2023;18:00;<7;<10;20
25.05.2023;19:00;<7;<10;20
25.05.2023;20:00;;;20
25.05.2023;21:00;<7;15;20
25.05.2023;22:00;<7;19;20
25.05.2023;23:00;<7;21;20
25.05.2023;24:00;<7;16;20
26.05.2023;01:00;<7;17;20
26.05.2023;02:00;<7;14;21
26.05.2023;03:00;<7;13;21
26.05.2023;04:00;<7;10;21
26.05.2023;05:00;<7;13;21
26.05.2023;06:00;<7;13;21
26.05.2023;07:00;<7;14;21
26.05.2023;08:00;<7;14;21
26.05.2023;09:00;<7;13;21
26.05.2023;10:00;<7;13;21
26.05.2023;11:00;<7;12;22
26.05.2023;12:00;<7;11;22
26.05.2023;13:00;<7;<10;23
26.05.2023;14:00;<7;<10;23
26.05.2023;15:00;<7;<10;24
26.05.2023;16:00;<7;<10;24
26.05.2023;17:00;<7;<10;25
26.05.2023;18:00;<7;<10;25
26.05.2023;19:00;<7;<10;25
26.05.2023;20:00;<7;<10;25
26.05.2023;21:00;;;25
26.05.2023;22:00;<7;<10;25
26.05.2023;23:00;<7;<10;25
26.05.2023;24:00;<7;<10;25
27.05.2023;01:00;<7;<10;25
27.05.2023;02:00;<7;<10;25
27.05.2023;03:00;<7;<10;25
27.05.2023;04:00;<7;<10;25
27.05.2023;05:00;<7;<10;25
27.05.2023;06:00;<7;<10;24
27.05.2023;07:00;<7;<10;24
27.05.2023;08:00;<7;<10;24
27.05.2023;09:00;<7;<10;23
27.05.2023;10:00;<7;<10;22
27.05.2023;11:00;<7;<10;21
27.05.2023;12:00;<7;<10;20
27.05.2023;13:00;<7;<10;19
27.05.2023;14:00;<7;<10;19
27.05.2023;15:00;<7;<10;18
27.05.2023;16:00;<7;<10;18
27.05.2023;17:00;<7;<10;17
27.05.2023;18:00;<7;<10;18
27.05.2023;19:00;<7;<10;18
27.05.2023;20:00;<7;<10;19
27.05.2023;21:00;<7;<10;20
27.05.2023;22:00;;;20
27.05.2023;23:00;<7;12;20
27.05.2023;24:00;<7;12;20
28.05.2023;01:00;<7;14;21
28.05.2023;02:00;<7;17;21
28.05.2023;03:00;<7;21;21
28.05.2023;04:00;<7;13;21
28.05.2023;05:00;<7;<10;21
28.05.2023;06:00;<7;10;21
28.05.2023;07:00;<7;<10;21
28.05.2023;08:00;<7;13;21
28.05.2023;09:00;<7;17;21
28.05.2023;10:00;<7;12;21
28.05.2023;11:00;<7;<10;21
28.05.2023;12:00;<7;<10;21
28.05.2023;13:00;<7;<10;20
28.05.2023;14:00;<7;<10;20
28.05.2023;15:00;<7;<10;20
28.05.2023;16:00;<7;<10;20
28.05.2023;17:00;<7;<10;20
28.05.2023;18:00;<7;<10;19
28.05.2023;19:00;<7;<10;18
28.05.2023;20:00;<7;<10;17
28.05.2023;21:00;<7;<10;16
28.05.2023;22:00;<7;<10;16
28.05.2023;23:00;;;15
28.05.2023;24:00;<7;<10;15
29.05.2023;01:00;<7;<10;15
29.05.2023;02:00;<7;<10;14
29.05.2023;03:00;<7;<10;14
29.05.2023;04:00;<7;<10;14
29.05.2023;05:00;<7;<10;13
29.05.2023;06:00;<7;<10;13
29.05.2023;07:00;<7;<10;13
29.05.2023;08:00;<7;<10;12
29.05.2023;09:00;<7;<10;12
29.05.2023;10:00;<7;<10;12
29.05.2023;11:00;<7;10;12
29.05.2023;12:00;<7;<10;12
29.05.2023;13:00;<7;<10;12
29.05.2023;14:00;<7;<10;13
29.05.2023;15:00;<7;<10;13
29.05.2023;16:00;<7;<10;13
29.05.2023;17:00;<7;<10;13
29.05.2023;18:00;<7;<10;13
29.05.2023;19:00;<7;<10;14
29.05.2023;20:00;<7;<10;14
29.05.2023;21:00;<7;<10;14
29.05.2023;22:00;<7;<10;13
29.05.2023;23:00;<7;<10;14
29.05.2023;24:00;;;13
30.05.2023;01:00;<7;<10;13
30.05.2023;02:00;<7;10;14
30.05.2023;03:00;<7;<10;14
30.05.2023;04:00;<7;<10;14
30.05.2023;05:00;<7;11;14
30.05.2023;06:00;<7;12;14
30.05.2023;07:00;<7;10;14
30.05.2023;08:00;<7;<10;15
30.05.2023;09:00;<7;<10;15
30.05.2023;10:00;<7;11;16
30.05.2023;11:00;<7;12;17
30.05.2023;12:00;<7;10;17
30.05.2023;13:00;<7;<10;17
30.05.2023;14:00;<7;<10;17
30.05.2023;15:00;<7;<10;17
30.05.2023;16:00;<7;<10;18
30.05.2023;17:00;<7;<10;18
30.05.2023;18:00;<7;<10;18
30.05.2023;19:00;<7;<10;18
30.05.2023;20:00;<7;<10;18
30.05.2023;21:00;<7;<10;18
30.05.2023;22:00;<7;<10;18
30.05.2023;23:00;<7;<10;18
30.05.2023;24:00;<7;<10;18
31.05.2023;01:00;;;18
31.05.2023;02:00;<7;<10;17
31.05.2023;03:00;<7;<10;18
31.05.2023;04:00;<7;<10;18
31.05.2023;05:00;<7;<10;18
31.05.2023;06:00;<7;11;18
31.05.2023;07:00;10;12;18
31.05.2023;08:00;7;12;18
31.05.2023;09:00;<7;<10;18
31.05.2023;10:00;<7;<10;17
31.05.2023;11:00;<7;<10;17
31.05.2023;12:00;<7;<10;16
31.05.2023;13:00;<7;<10;16
31.05.2023;14:00;<7;<10;16
31.05.2023;15:00;<7;<10;16
31.05.2023;16:00;<7;<10;16
31.05.2023;17:00;<7;<10;16
31.05.2023;18:00;<7;<10;15
31.05.2023;19:00;<7;<10;15
31.05.2023;20:00;<7;<10;15
31.05.2023;21:00;<7;<10;15
31.05.2023;22:00;<7;<10;15
31.05.2023;23:00;<7;<10;15
31.05.2023;24:00;<7;<10;16
01.06.2023;01:00;<7;<10;16
01.06.2023;02:00;;;16
01.06.2023;03:00;<7;15;16
01.06.2023;04:00;<7;14;16
01.06.2023;05:00;<7;15;16
01.06.2023;06:00;<7;19;16
01.06.2023;07:00;<7;20;16
01.06.2023;08:00;9;18;17
01.06.2023;09:00;9;21;19
01.06.2023;10:00;10;20;21
01.06.2023;11:00;9;19;22
01.06.2023;12:00;<7;16;23
01.06.2023;13:00;<7;<10;24
01.06.2023;14:00;<7;<10;25
01.06.2023;15:00;<7;<10;26
01.06.2023;16:00;<7;<10;26
01.06.2023;17:00;<7;<10;26
01.06.2023;18:00;<7;<10;26
01.06.2023;19:00;<7;<10;27
01.06.2023;20:00;<7;<10;27
01.06.2023;21:00;<7;<10;27
01.06.2023;22:00;<7;<10;27
01.06.2023;23:00;<7;<10;27
01.06.2023;24:00;<7;<10;27
02.06.2023;01:00;<7;<10;27
02.06.2023;02:00;<7;<10;27
02.06.2023;03:00;;;27
02.06.2023;04:00;<7;<10;27
02.06.2023;05:00;<7;<10;27
02.06.2023;06:00;<7;<10;28
02.06.2023;07:00;<7;<10;28
02.06.2023;08:00;<7;11;27
02.06.2023;09:00;<7;12;26
02.06.2023;10:00;<7;13;25
02.06.2023;11:00;<7;12;24
02.06.2023;12:00;<7;11;24
02.06.2023;13:00;<7;11;24
02.06.2023;14:00;<7;<10;23
02.06.2023;15:00;<7;<10;23
02.06.2023;16:00;<7;<10;23
02.06.2023;17:00;<7;<10;23
02.06.2023;18:00;<7;<10;23
02.06.2023;19:00;<7;<10;23
02.06.2023;20:00;<7;<10;23
02.06.2023;21:00;<7;<10;24
02.06.2023;22:00;<7;<10;24
02.06.2023;23:00;<7;11;24
02.06.2023;24:00;<7;10;24
03.06.2023;01:00;<7;10;24
03.06.2023;02:00;<7;10;24
03.06.2023;03:00;<7;<10;24
03.06.2023;04:00;;;24
03.06.2023;05:00;<7;12;24
03.06.2023;06:00;<7;13;23
03.06.2023;07:00;<7;<10;23
03.06.2023;08:00;<7;<10;22
03.06.2023;09:00;<7;<10;21
03.06.2023;10:00;<7;<10;20
03.06.2023;11:00;<7;<10;18
03.06.2023;12:00;<7;<10;18
03.06.2023;13:00;<7;<10;17
03.06.2023;14:00;<7;<10;16
03.06.2023;15:00;<7;<10;16
03.06.2023;16:00;<7;<10;16
03.06.2023;17:00;<7;<10;16
03.06.2023;18:00;<7;<10;15
03.06.2023;19:00;<7;<10;14
03.06.2023;20:00;<7;<10;14
03.06.2023;21:00;<7;<10;13
03.06.2023;22:00;<7;<10;13
03.06.2023;23:00;<7;12;12
03.06.2023;24:00;<7;13;12
04.06.2023;01:00;<7;11;12
04.06.2023;02:00;<7;12;12
04.06.2023;03:00;<7;10;12
04.06.2023;04:00;<7;13;11
04.06.2023;05:00;;;11
04.06.2023;06:00;<7;11;11
04.06.2023;07:00;<7;<10;11
04.06.2023;08:00;<7;<10;11
04.06.2023;09:00;<7;<10;11
04.06.2023;10:00;<7;<10;11
04.06.2023;11:00;<7;<10;11
04.06.2023;12:00;<7;<10;11
04.06.2023;13:00;<7;<10;11
04.06.2023;14:00;<7;<10;11
04.06.2023;15:00;<7;<10;11
04.06.2023;16:00;<7;<10;11
04.06.2023;17:00;<7;<10;11
04.06.2023;18:00;<7;<10;11
04.06.2023;19:00;<7;<10;11
04.06.2023;20:00;<7;<10;11
04.06.2023;21:00;<7;<10;11
04.06.2023;22:00;<7;<10;11
04.06.2023;23:00;<7;11;11
04.06.2023;24:00;<7;<10;11
05.06.2023;01:00;<7;<10;11
05.06.2023;02:00;<7;<10;11
05.06.2023;03:00;<7;<10;12
05.06.2023;04:00;<7;<10;12
05.06.2023;05:00;<7;<10;12
05.06.2023;06:00;;;12
05.06.2023;07:00;<7;19;12
05.06.2023;08:00;8;18;12
05.06.2023;09:00;<7;18;12
05.06.2023;10:00;<7;15;13
05.06.2023;11:00;<7;19;14
05.06.2023;12:00;<7;16;14
05.06.2023;13:00;<7;14;14
05.06.2023;14:00;<7;12;15
05.06.2023;15:00;<7;<10;15
05.06.2023;16:00;<7;<10;15
05.06.2023;17:00;<7;11;15
05.06.2023;18:00;<7;<10;16
05.06.2023;19:00;<7;<10;16
05.06.2023;20:00;<7;<10;16
05.06.2023;21:00;<7;11;16
05.06.2023;22:00;<7;12;16
05.06.2023;23:00;<7;12;16
05.06.2023;24:00;<7;15;17
06.06.2023;01:00;<7;16;17
06.06.2023;02:00;<7;14;17
06.06.2023;03:00;<7;13;17
06.06.2023;04:00;<7;13;18
06.06.2023;05:00;<7;16;18
06.06.2023;06:00;9;22;18
06.06.2023;07:00;;;19
06.06.2023;08:00;8;20;19
06.06.2023;09:00;<7;17;19
06.06.2023;10:00;<7;16;20
06.06.2023;11:00;<7;18;20
06.06.2023;12:00;<7;21;21
06.06.2023;13:00;<7;21;21
06.06.2023;14:00;<7;21;21
06.06.2023;15:00;<7;14;21
06.06.2023;16:00;<7;<10;21
06.06.2023;17:00;<7;<10;22
06.06.2023;18:00;<7;<10;22
06.06.2023;19:00;<7;<10;22
06.06.2023;20:00;<7;13;22
06.06.2023;21:00;<7;11;22
06.06.2023;22:00;<7;<10;22
06.06.2023;23:00;<7;11;22
06.06.2023;24:00;<7;16;22
07.06.2023;01:00;<7;13;22
07.06.2023;02:00;<7;13;22
07.06.2023;03:00;<7;17;23
07.06.2023;04:00;<7;17;23
07.06.2023;05:00;<7;19;23
07.06.2023;06:00;<7;26;23
07.06.2023;07:00;<7;27;23
07.06.2023;08:00;;;23
07.06.2023;09:00;<7;24;23
07.06.2023;10:00;<7;23;23
07.06.2023;11:00;<7;20;22
07.06.2023;12:00;<7;23;22
07.06.2023;13:00;<7;19;22
07.06.2023;14:00;<7;20;22
07.06.2023;15:00;<7;22;23
07.06.2023;16:00;<7;18;23
07.06.2023;17:00;<7;10;24
07.06.2023;18:00;<7;11;24
07.06.2023;19:00;<7;13;24
07.06.2023;20:00;<7;18;25
07.06.2023;21:00;<7;13;25
07.06.2023;22:00;<7;13;26
07.06.2023;23:00;<7;13;26
07.06.2023;24:00;<7;12;26
08.06.2023;01:00;<7;13;26
08.06.2023;02:00;<7;14;27
08.06.2023;03:00;<7;15;27
08.06.2023;04:00;<7;15;27
08.06.2023;05:00;<7;15;27
08.06.2023;06:00;<7;13;28
08.06.2023;07:00;<7;11;27
08.06.2023;08:00;<7;11;27
08.06.2023;09:00;;;27
08.06.2023;10:00;<7;<10;27
08.06.2023;11:00;<7;<10;27
08.06.2023;12:00;<7;<10;27
08.06.2023;13:00;<7;<10;26
08.06.2023;14:00;<7;10;26
08.06.2023;15:00;<7;13;26
08.06.2023;16:00;<7;<10;26
08.06.2023;17:00;<7;10;26
08.06.2023;18:00;<7;11;26
08.06.2023;19:00;<7;<10;25
08.06.2023;20:00;<7;<10;25
08.06.2023;21:00;<7;<10;25
08.06.2023;22:00;<7;12;24
08.06.2023;23:00;<7;18;24
08.06.2023;24:00;<7;19;24
09.06.2023;01:00;<7;23;23
09.06.2023;02:00;<7;21;23
09.06.2023;03:00;<7;22;23
09.06.2023;04:00;<7;18;22
09.06.2023;05:00;<7;22;22
09.06.2023;06:00;<7;19;22
09.06.2023;07:00;<7;17;22
09.06.2023;08:00;<7;17;22
09.06.2023;09:00;<7;16;22
09.06.2023;10:00;;;22
09.06.2023;11:00;<7;<10;22
09.06.2023;12:00;<7;<10;22
09.06.2023;13:00;<7;<10;21
09.06.2023;14:00;<7;<10;21
09.06.2023;15:00;<7;<10;21
09.06.2023;16:00;<7;<10;20
09.06.2023;17:00;<7;<10;20
09.06.2023;18:00;<7;<10;19
09.06.2023;19:00;<7;<10;19
09.06.2023;20:00;<7;<10;19
09.06.2023;21:00;<7;<10;20
09.06.2023;22:00;<7;17;20
09.06.2023;23:00;<7;13;20
09.06.2023;24:00;<7;<10;21
10.06.2023;01:00;<7;<10;21
10.06.2023;02:00;<7;<10;21
10.06.2023;03:00;<7;12;21
10.06.2023;04:00;<7;14;21
10.06.2023;05:00;<7;13;22
10.06.2023;06:00;<7;17;22
10.06.2023;07:00;<7;14;22
10.06.2023;08:00;<7;14;22
10.06.2023;09:00;<7;16;22
10.06.2023;10:00;<7;10;22
10.06.2023;11:00;;;22
10.06.2023;12:00;<7;<10;22
10.06.2023;13:00;<7;<10;22
10.06.2023;14:00;<7;<10;23
10.06.2023;15:00;<7;<10;24
10.06.2023;16:00;<7;<10;24
10.06.2023;17:00;<7;<10;24
10.06.2023;18:00;<7;<10;24
10.06.2023;19:00;<7;<10;24
10.06.2023;20:00;<7;<10;24
10.06.2023;21:00;<7;<10;24
10.06.2023;22:00;<7;14;24
10.06.2023;23:00;<7;16;24
10.06.2023;24:00;<7;16;24
11.06.2023;01:00;<7;17;24
11.06.2023;02:00;<7;14;24
11.06.2023;03:00;<7;10;24
11.06.2023;04:00;<7;11;23
11.06.2023;05:00;<7;13;23
11.06.2023;06:00;<7;15;23
11.06.2023;07:00;<7;11;23
11.06.2023;08:00;<7;<10;23
11.06.2023;09:00;<7;<10;23
11.06.2023;10:00;<7;<10;22
11.06.2023;11:00;<7;<10;22
11.06.2023;12:00;;;22
11.06.2023;13:00;<7;<10;21
11.06.2023;14:00;<7;<10;21
11.06.2023;15:00;<7;<10;20
11.06.2023;16:00;<7;<10;20
11.06.2023;17:00;<7;<10;20
11.06.2023;18:00;<7;<10;20
11.06.2023;19:00;<7;<10;20
11.06.2023;20:00;<7;<10;20
11.06.2023;21:00;<7;<10;20
11.06.2023;22:00;<7;12;20
11.06.2023;23:00;<7;12;19
11.06.2023;24:00;<7;14;19
12.06.2023;01:00;<7;17;19
12.06.2023;02:00;<7;14;19
12.06.2023;03:00;<7;16;18
12.06.2023;04:00;<7;16;18
12.06.2023;05:00;<7;22;18
12.06.2023;06:00;<7;23;18
12.06.2023;07:00;<7;15;18
12.06.2023;08:00;<7;21;18
12.06.2023;09:00;<7;26;19
12.06.2023;10:00;<7;22;19
12.06.2023;11:00;<7;13;19
12.06.2023;12:00;<7;<10;20
12.06.2023;13:00;;;20
12.06.2023;14:00;<7;<10;20
12.06.2023;15:00;<7;<10;20
12.06.2023;16:00;<7;<10;20
12.06.2023;17:00;<7;<10;20
12.06.2023;18:00;<7;<10;19
12.06.2023;19:00;<7;<10;19
12.06.2023;20:00;<7;<10;19
12.06.2023;21:00;<7;<10;19
12.06.2023;22:00;<7;15;19
12.06.2023;23:00;<7;17;20
12.06.2023;24:00;<7;17;20
13.06.2023;01:00;<7;14;20
13.06.2023;02:00;<7;14;20
13.06.2023;03:00;<7;13;20
13.06.2023;04:00;<7;13;20
13.06.2023;05:00;<7;21;20
13.06.2023;06:00;<7;31;20
13.06.2023;07:00;<7;28;20
13.06.2023;08:00;<7;21;20
13.06.2023;09:00;<7;<10;20
13.06.2023;10:00;<7;<10;20
13.06.2023;11:00;<7;<10;20
13.06.2023;12:00;<7;<10;19
13.06.2023;13:00;<7;<10;20
13.06.2023;14:00;;;20
13.06.2023;15:00;<7;<10;20
13.06.2023;16:00;<7;<10;20
13.06.2023;17:00;<7;<10;20
13.06.2023;18:00;<7;<10;20
13.06.2023;19:00;<7;<10;20
13.06.2023;20:00;<7;<10;20
13.06.2023;21:00;<7;<10;20
13.06.2023;22:00;<7;<10;20
13.06.2023;23:00;<7;<10;20
13.06.2023;24:00;<7;<10;21
14.06.2023;01:00;<7;<10;21
14.06.2023;02:00;<7;<10;21
14.06.2023;03:00;<7;<10;21
14.06.2023;04:00;<7;15;21
14.06.2023;05:00;<7;17;21
14.06.2023;06:00;<7;29;22
14.06.2023;07:00;<7;27;22
14.06.2023;08:00;<7;13;22
14.06.2023;09:00;<7;11;22
14.06.2023;10:00;<7;<10;22
14.06.2023;11:00;<7;<10;22
14.06.2023;12:00;<7;<10;21
14.06.2023;13:00;<7;<10;21
14.06.2023;14:00;<7;10;21
14.06.2023;15:00;;;21
14.06.2023;16:00;<7;<10;20
14.06.2023;17:00;<7;<10;20
14.06.2023;18:00;<7;<10;20
14.06.2023;19:00;<7;<10;20
14.06.2023;20:00;<7;<10;19
14.06.2023;21:00;<7;<10;19
14.06.2023;22:00;<7;14;19
14.06.2023;23:00;<7;13;18
14.06.2023;24:00;<7;12;18
15.06.2023;01:00;<7;13;18
15.06.2023;02:00;<7;18;17
15.06.2023;03:00;<7;16;17
15.06.2023;04:00;<7;14;16
15.06.2023;05:00;<7;16;16
15.06.2023;06:00;<7;20;16
15.06.2023;07:00;9;25;15
15.06.2023;08:00;<7;17;15
15.06.2023;09:00;<7;19;16
15.06.2023;10:00;<7;14;16
15.06.2023;11:00;<7;<10;16
15.06.2023;12:00;<7;<10;16
15.06.2023;13:00;<7;<10;16
15.06.2023;14:00;<7;11;16
15.06.2023;15:00;<7;14;17
15.06.2023;16:00;;;17
15.06.2023;17:00;<7;15;18
15.06.2023;18:00;<7;14;18
15.06.2023;19:00;<7;13;18
15.06.2023;20:00;<7;15;18
15.06.2023;21:00;<7;16;19
15.06.2023;22:00;<7;14;19
15.06.2023;23:00;<7;15;19
15.06.2023;24:00;<7;16;20
16.06.2023;01:00;<7;16;21
16.06.2023;02:00;<7;16;21
16.06.2023;03:00;<7;16;22
16.06.2023;04:00;<7;17;22
16.06.2023;05:00;<7;27;23
16.06.2023;06:00;<7;34;23
16.06.2023;07:00;<7;29;23
16.06.2023;08:00;<7;19;24
16.06.2023;09:00;<7;17;24
16.06.2023;10:00;<7;16;24
16.06.2023;11:00;<7;17;24
16.06.2023;12:00;<7;19;24
16.06.2023;13:00;<7;25;24
16.06.2023;14:00;<7;18;24
16.06.2023;15:00;<7;13;24
16.06.2023;16:00;<7;<10;24
16.06.2023;17:00;;;24
16.06.2023;18:00;<7;<10;23
16.06.2023;19:00;<7;<10;23
16.06.2023;20:00;<7;<10;23
16.06.2023;21:00;<7;<10;23
16.06.2023;22:00;<7;14;23
16.06.2023;23:00;<7;13;23
16.06.2023;24:00;<7;14;22
17.06.2023;01:00;<7;12;22
17.06.2023;02:00;<7;13;21
17.06.2023;03:00;<7;11;21
17.06.2023;04:00;<7;13;21
17.06.2023;05:00;<7;24;21
17.06.2023;06:00;<7;25;21
17.06.2023;07:00;<7;20;21
17.06.2023;08:00;<7;18;21
17.06.2023;09:00;<7;22;21
17.06.2023;10:00;<7;12;20
17.06.2023;11:00;<7;<10;20
17.06.2023;12:00;<7;<10;20
17.06.2023;13:00;<7;<10;20
17.06.2023;14:00;<7;<10;20
17.06.2023;15:00;<7;<10;20
17.06.2023;16:00;<7;<10;20
17.06.2023;17:00;<7;<10;19
17.06.2023;18:00;;;19
17.06.2023;19:00;<7;<10;19
17.06.2023;20:00;<7;<10;19
17.06.2023;21:00;<7;15;20
17.06.2023;22:00;<7;17;20
17.06.2023;23:00;<7;16;20
17.06.2023;24:00;<7;26;21
18.06.2023;01:00;<7;21;21
18.06.2023;02:00;<7;11;20
18.06.2023;03:00;<7;<10;20
18.06.2023;04:00;<7;13;20
18.06.2023;05:00;<7;12;20
18.06.2023;06:00;<7;12;20
18.06.2023;07:00;<7;12;20
18.06.2023;08:00;<7;11;19
18.06.2023;09:00;<7;11;19
18.06.2023;10:00;<7;<10;19
18.06.2023;11:00;<7;<10;20
18.06.2023;12:00;<7;<10;20
18.06.2023;13:00;<7;<10;20
18.06.2023;14:00;<7;<10;20
18.06.2023;15:00;<7;17;20
18.06.2023;16:00;<7;14;21
18.06.2023;17:00;<7;11;21
18.06.2023;18:00;<7;14;21
18.06.2023;19:00;;;21
18.06.2023;20:00;<7;<10;22
18.06.2023;21:00;<7;<10;22
18.06.2023;22:00;<7;<10;22
18.06.2023;23:00;<7;<10;21
18.06.2023;24:00;<7;<10;21
19.06.2023;01:00;<7;<10;20
19.06.2023;02:00;<7;<10;20
19.06.2023;03:00;<7;<10;20
19.06.2023;04:00;<7;<10;20
19.06.2023;05:00;<7;<10;20
19.06.2023;06:00;<7;<10;20
19.06.2023;07:00;<7;<10;19
19.06.2023;08:00;<7;<10;19
19.06.2023;09:00;<7;<10;19
19.06.2023;10:00;<7;<10;18
19.06.2023;11:00;<7;<10;18
19.06.2023;12:00;<7;<10;17
19.06.2023;13:00;<7;<10;17
19.06.2023;14:00;<7;<10;17
19.06.2023;15:00;<7;<10;17
19.06.2023;16:00;<7;<10;17
19.06.2023;17:00;<7;<10;16
19.06.2023;18:00;<7;<10;16
19.06.2023;19:00;<7;<10;15
19.06.2023;20:00;;;15
19.06.2023;21:00;<7;14;15
19.06.2023;22:00;<7;11;15
19.06.2023;23:00;<7;12;14
19.06.2023;24:00;<7;13;14
20.06.2023;01:00;<7;13;15
20.06.2023;02:00;<7;12;16
20.06.2023;03:00;<7;<10;17
20.06.2023;04:00;<7;<10;18
20.06.2023;05:00;<7;<10;17
20.06.2023;06:00;<7;<10;17
20.06.2023;07:00;<7;11;17
20.06.2023;08:00;<7;11;17
20.06.2023;09:00;<7;<10;18
20.06.2023;10:00;<7;<10;17
20.06.2023;11:00;<7;<10;17
20.06.2023;12:00;<7;<10;17
20.06.2023;13:00;<7;<10;17
20.06.2023;14:00;<7;<10;17
20.06.2023;15:00;<7;<10;16
20.06.2023;16:00;<7;<10;16
20.06.2023;17:00;<7;<10;16
20.06.2023;18:00;<7;<10;17
20.06.2023;19:00;<7;<10;17
20.06.2023;20:00;<7;<10;17
20.06.2023;21:00;;;17
20.06.2023;22:00;<7;<10;18
20.06.2023;23:00;<7;<10;17
20.06.2023;24:00;<7;<10;17
21.06.2023;01:00;<7;<10;17
21.06.2023;02:00;<7;<10;16
21.06.2023;03:00;<7;<10;14
21.06.2023;04:00;<7;<10;13
21.06.2023;05:00;<7;<10;13
21.06.2023;06:00;<7;11;13
21.06.2023;07:00;<7;<10;14
21.06.2023;08:00;<7;<10;15
21.06.2023;09:00;<7;<10;15
21.06.2023;10:00;<7;<10;16
21.06.2023;11:00;;;16
21.06.2023;12:00;;;16
21.06.2023;13:00;<7;<10;17
21.06.2023;14:00;<7;<10;17
21.06.2023;15:00;<7;<10;17
21.06.2023;16:00;<7;<10;17
21.06.2023;17:00;<7;<10;17
21.06.2023;18:00;<7;<10;16
21.06.2023;19:00;<7;<10;16
21.06.2023;20:00;<7;<10;15
21.06.2023;21:00;<7;<10;15
21.06.2023;22:00;<7;10;15
21.06.2023;23:00;<7;12;15
21.06.2023;24:00;<7;12;15
22.06.2023;01:00;<7;14;15
22.06.2023;02:00;<7;14;15
22.06.2023;03:00;<7;16;15
22.06.2023;04:00;<7;18;15
22.06.2023;05:00;<7;21;16
22.06.2023;06:00;<7;26;15
22.06.2023;07:00;<7;29;15
22.06.2023;08:00;<7;29;15
22.06.2023;09:00;<7;24;15
22.06.2023;10:00;<7;18;15
22.06.2023;11:00;<7;10;15
22.06.2023;12:00;<7;16;15
22.06.2023;13:00;;;15
22.06.2023;14:00;<7;11;15
22.06.2023;15:00;<7;13;16
22.06.2023;16:00;<7;12;16
22.06.2023;17:00;<7;13;17
22.06.2023;18:00;<7;11;17
22.06.2023;19:00;<7;<10;17
22.06.2023;20:00;<7;<10;17
22.06.2023;21:00;<7;<10;17
22.06.2023;22:00;<7;<10;17
22.06.2023;23:00;<7;<10;17
22.06.2023;24:00;<7;<10;17
23.06.2023;01:00;<7;<10;18
23.06.2023;02:00;<7;<10;18
23.06.2023;03:00;<7;<10;18
23.06.2023;04:00;<7;<10;18
23.06.2023;05:00;<7;<10;19
23.06.2023;06:00;<7;<10;19
23.06.2023;07:00;<7;<10;19
23.06.2023;08:00;<7;<10;19
23.06.2023;09:00;<7;<10;19
23.06.2023;10:00;<7;<10;19
23.06.2023;11:00;<7;<10;18
23.06.2023;12:00;<7;<10;18
23.06.2023;13:00;<7;<10;18
23.06.2023;14:00;;;18
23.06.2023;15:00;<7;<10;17
23.06.2023;16:00;<7;<10;16
23.06.2023;17:00;<7;<10;16
23.06.2023;18:00;<7;<10;16
23.06.2023;19:00;<7;<10;15
23.06.2023;20:00;<7;<10;15
23.06.2023;21:00;<7;13;15
23.06.2023;22:00;<7;13;16
23.06.2023;23:00;<7;14;16
23.06.2023;24:00;<7;14;15
24.06.2023;01:00;<7;15;15
24.06.2023;02:00;<7;22;15
24.06.2023;03:00;<7;21;15
24.06.2023;04:00;<7;16;16
24.06.2023;05:00;<7;13;17
24.06.2023;06:00;<7;11;17
24.06.2023;07:00;<7;10;17
24.06.2023;08:00;<7;11;17
24.06.2023;09:00;<7;11;17
24.06.2023;10:00;<7;<10;17
24.06.2023;11:00;<7;<10;17
24.06.2023;12:00;<7;<10;17
24.06.2023;13:00;<7;<10;17
24.06.2023;14:00;<7;<10;17
24.06.2023;15:00;;;17
24.06.2023;16:00;<7;<10;17
24.06.2023;17:00;<7;<10;17
24.06.2023;18:00;<7;<10;16
24.06.2023;19:00;<7;<10;16
24.06.2023;20:00;<7;<10;16
24.06.2023;21:00;<7;14;16
24.06.2023;22:00;<7;11;16
24.06.2023;23:00;;;17
24.06.2023;24:00;;;18
25.06.2023;01:00;<7;20;18
25.06.2023;02:00;<7;22;17
25.06.2023;03:00;<7;23;17
25.06.2023;04:00;<7;13;16
25.06.2023;05:00;<7;<10;15
25.06.2023;06:00;<7;<10;14
25.06.2023;07:00;<7;<10;14
25.06.2023;08:00;<7;<10;13
25.06.2023;09:00;<7;<10;13
25.06.2023;10:00;<7;<10;13
25.06.2023;11:00;<7;<10;12
25.06.2023;12:00;<7;<10;12
25.06.2023;13:00;<7;<10;12
25.06.2023;14:00;<7;<10;12
25.06.2023;15:00;<7;<10;13
25.06.2023;16:00;<7;<10;13
25.06.2023;17:00;<7;<10;13